Location: Unspecified
(0.0000°N, 0.0000°E)
Time: 18:47:29
(UTC+00:00)

COSMOS 2401 - Pass Details

Date: 06 March 2021
Orbit: 1467 x 1500 km, 82.5° (Epoch: 11 April)

Event Time Altitude Azimuth Distance (km) Brightness Sun altitude
Rises 18:48:36 0° 175° (S) 4,579 10.0 -9.3°
Reaches altitude 10° 18:51:32 10° 171° (S) 3,599 9.4 -10.1°
Maximum altitude 18:59:59 59° 93° (E) 1,673 7.4 -12.2°
Drops below altitude 10° 19:08:25 10° 16° (NNE) 3,607 9.2 -14.3°
Sets 19:11:20 0° 12° (NNE) 4,589 9.8 -15.0°
